UAE89Y LIPE-OMDB

Flight info

Callsign UAE89Y
Flight time 5h 56m
Altitude 41000
Route PELEG DCT ESODU DCT LUXIL DCT LATAN UM872 PLH UL604 SALUN N705 MMA P751 DASUM Y234 FYM M872 EVANO J852 BOVET DCT MEDRO J852 BDB Y214 RAPMA DCT KUVSO DCT KATIT DCT PEKEM M628 RIGIL G783 ELUDA/N0486F350 G783 ASPED Q308 KIPOK Q568 IMPED
Aircraft A359/H-SDE2E3GHIJ3J4J5LM1ORWXY/LB1D1

Departure

Time 2026-05-06 20:03
Airport Bologna Guglielmo Marconi Airport (LIPE)

Arrival

Time 2026-05-07 01:59
Airport Dubai International Airport (OMDB)
Time Latitude Longitude Altitude Speed Heading
2026-05-06 19:41 44.53392 11.28296 137 ft 0 kts 207°
2026-05-06 19:54 44.53389 11.28294 137 ft 4 kts 207°
2026-05-06 19:54 44.53387 11.28292 137 ft 2 kts 207°
2026-05-06 19:55 44.53404 11.28304 137 ft 3 kts 207°
2026-05-06 19:55 44.53422 11.28317 137 ft 3 kts 207°
2026-05-06 19:55 44.53440 11.28329 137 ft 3 kts 204°
2026-05-06 19:55 44.53459 11.28341 137 ft 3 kts 206°
2026-05-06 19:56 44.53475 11.28354 137 ft 3 kts 239°
2026-05-06 19:56 44.53478 11.28364 136 ft 1 kts 296°
2026-05-06 19:56 44.53472 11.28382 136 ft 3 kts 296°
2026-05-06 19:56 44.53463 11.28405 136 ft 2 kts 296°
2026-05-06 19:57 44.53466 11.28400 136 ft 4 kts 296°
2026-05-06 19:57 44.53477 11.28369 136 ft 0 kts 296°
2026-05-06 19:59 44.53481 11.28356 136 ft 5 kts 295°
2026-05-06 19:59 44.53522 11.28309 136 ft 10 kts 340°
2026-05-06 20:00 44.53581 11.28217 137 ft 16 kts 298°
2026-05-06 20:00 44.53643 11.28044 136 ft 23 kts 297°
2026-05-06 20:00 44.53726 11.27812 136 ft 29 kts 296°
2026-05-06 20:00 44.53811 11.27577 136 ft 26 kts 296°
2026-05-06 20:01 44.53888 11.27372 137 ft 21 kts 305°
2026-05-06 20:01 44.54012 11.27239 136 ft 18 kts 327°
2026-05-06 20:01 44.54104 11.27254 108 ft 13 kts 40°
2026-05-06 20:01 44.54106 11.27302 136 ft 6 kts 115°
2026-05-06 20:02 44.54102 11.27312 136 ft 0 kts 115°
2026-05-06 20:02 44.54065 11.27419 136 ft 42 kts 117°
2026-05-06 20:02 44.53820 11.28098 136 ft 111 kts 117°
2026-05-06 20:02 44.53383 11.29319 181 ft 163 kts 118°
2026-05-06 20:03 44.52963 11.30767 914 ft 159 kts 102°
2026-05-06 20:03 44.53194 11.32240 1658 ft 162 kts 55°
2026-05-06 20:03 44.54167 11.33113 2095 ft 178 kts 13°
2026-05-06 20:03 44.55411 11.33597 2381 ft 194 kts 18°
2026-05-06 20:04 44.56706 11.34375 2700 ft 208 kts 26°
2026-05-06 20:04 44.57989 11.35396 3135 ft 216 kts 31°
2026-05-06 20:04 44.59285 11.36532 3530 ft 225 kts 28°
2026-05-06 20:04 44.60777 11.37182 3869 ft 227 kts 356°
2026-05-06 20:05 44.62219 11.36541 4372 ft 216 kts 320°
2026-05-06 20:05 44.63125 11.34860 4634 ft 225 kts 285°
2026-05-06 20:05 44.63157 11.32661 5047 ft 230 kts 257°
2026-05-06 20:05 44.62798 11.30477 5716 ft 227 kts 254°
2026-05-06 20:06 44.62358 11.28380 6454 ft 223 kts 246°
2026-05-06 20:06 44.61528 11.26577 6911 ft 230 kts 226°
2026-05-06 20:06 44.60253 11.25051 7187 ft 245 kts 218°
2026-05-06 20:06 44.58863 11.23595 7642 ft 253 kts 218°
2026-05-06 20:07 44.57460 11.22124 8157 ft 258 kts 218°
2026-05-06 20:07 44.56020 11.20596 8699 ft 262 kts 218°
2026-05-06 20:07 44.54562 11.19039 9267 ft 265 kts 218°
2026-05-06 20:07 44.53084 11.17455 9839 ft 269 kts 218°
2026-05-06 20:08 44.51582 11.15839 10246 ft 278 kts 218°
2026-05-06 20:08 44.50009 11.14149 10475 ft 292 kts 218°
2026-05-06 20:08 44.48359 11.12388 10712 ft 305 kts 217°
2026-05-06 20:08 44.46483 11.10877 10944 ft 319 kts 203°
2026-05-06 20:09 44.44264 11.10281 11284 ft 332 kts 182°
2026-05-06 20:09 44.41981 11.10861 11761 ft 341 kts 163°
2026-05-06 20:09 44.39853 11.12443 12197 ft 350 kts 152°
2026-05-06 20:09 44.37796 11.14304 12654 ft 353 kts 151°
2026-05-06 20:10 44.35731 11.16185 13093 ft 356 kts 151°
2026-05-06 20:10 44.33639 11.18073 13539 ft 359 kts 151°
2026-05-06 20:10 44.31549 11.20016 13932 ft 364 kts 147°
2026-05-06 20:10 44.29746 11.22550 14333 ft 374 kts 129°
2026-05-06 20:11 44.28630 11.25863 14735 ft 385 kts 108°
2026-05-06 20:11 44.28269 11.29594 15139 ft 391 kts 96°
2026-05-06 20:11 44.28128 11.33404 15502 ft 394 kts 95°
2026-05-06 20:11 44.27998 11.37235 15935 ft 396 kts 95°
2026-05-06 20:12 44.27857 11.41078 16349 ft 398 kts 96°
2026-05-06 20:12 44.27704 11.44951 16761 ft 401 kts 96°
2026-05-06 20:12 44.27442 11.48829 17148 ft 402 kts 103°
2026-05-06 20:12 44.26818 11.52625 17568 ft 402 kts 108°
2026-05-06 20:13 44.26091 11.56408 17981 ft 404 kts 108°
2026-05-06 20:13 44.25355 11.60203 18374 ft 407 kts 108°
2026-05-06 20:13 44.24614 11.64029 18715 ft 410 kts 108°
2026-05-06 20:13 44.23868 11.67877 19049 ft 412 kts 109°
2026-05-06 20:14 44.22958 11.71651 19437 ft 409 kts 117°
2026-05-06 20:14 44.21611 11.75056 19766 ft 405 kts 130°
2026-05-06 20:14 44.19880 11.78144 20110 ft 404 kts 135°
2026-05-06 20:14 44.18014 11.81089 20459 ft 405 kts 137°
2026-05-06 20:15 44.16093 11.83959 20834 ft 406 kts 139°
2026-05-06 20:15 44.14149 11.86813 21185 ft 407 kts 139°
2026-05-06 20:15 44.12195 11.89687 21528 ft 409 kts 139°
2026-05-06 20:15 44.10243 11.92581 21885 ft 411 kts 139°
2026-05-06 20:16 44.08290 11.95500 22222 ft 413 kts 139°
2026-05-06 20:16 44.06339 11.98434 22575 ft 415 kts 139°
2026-05-06 20:16 44.04382 12.01386 22888 ft 417 kts 139°
2026-05-06 20:16 44.02406 12.04367 23200 ft 419 kts 139°
2026-05-06 20:17 44.01073 12.06378 23402 ft 420 kts 140°
2026-05-06 20:17 43.99088 12.09367 23681 ft 421 kts 140°
2026-05-06 20:17 43.97096 12.12364 23921 ft 424 kts 140°
2026-05-06 20:17 43.95095 12.15368 24181 ft 424 kts 139°
2026-05-06 20:18 43.93090 12.18378 24438 ft 426 kts 139°
2026-05-06 20:18 43.91072 12.21402 24663 ft 428 kts 139°
2026-05-06 20:18 43.89048 12.24433 24920 ft 430 kts 140°
2026-05-06 20:18 43.87034 12.27445 25181 ft 431 kts 139°
2026-05-06 20:19 43.84993 12.30494 25393 ft 433 kts 140°
2026-05-06 20:19 43.82936 12.33560 25651 ft 435 kts 140°
2026-05-06 20:19 43.80867 12.36640 25905 ft 437 kts 140°
2026-05-06 20:19 43.78793 12.39726 26138 ft 439 kts 140°
2026-05-06 20:20 43.76717 12.42816 26407 ft 439 kts 140°
2026-05-06 20:20 43.74633 12.45915 26691 ft 440 kts 140°
2026-05-06 20:20 43.72538 12.49020 26887 ft 444 kts 139°
2026-05-06 20:20 43.70418 12.52158 27046 ft 448 kts 139°
2026-05-06 20:21 43.68380 12.55174 27351 ft 449 kts 139°
2026-05-06 20:21 43.66243 12.58336 27664 ft 451 kts 139°
2026-05-06 20:21 43.64098 12.61507 27991 ft 452 kts 139°
2026-05-06 20:21 43.61947 12.64685 28302 ft 454 kts 139°
2026-05-06 20:22 43.59785 12.67873 28597 ft 456 kts 139°
2026-05-06 20:22 43.57613 12.71071 28944 ft 458 kts 139°
2026-05-06 20:22 43.55428 12.74284 29269 ft 460 kts 139°
2026-05-06 20:22 43.53232 12.77510 29595 ft 462 kts 140°
2026-05-06 20:23 43.51031 12.80741 29961 ft 463 kts 140°
2026-05-06 20:23 43.48819 12.83977 30157 ft 467 kts 139°
2026-05-06 20:23 43.46578 12.87252 30355 ft 471 kts 139°
2026-05-06 20:23 43.44330 12.90539 30658 ft 473 kts 139°
2026-05-06 20:24 43.42069 12.93845 30999 ft 475 kts 140°
2026-05-06 20:24 43.39805 12.97151 31316 ft 476 kts 140°
2026-05-06 20:24 43.37527 13.00472 31643 ft 478 kts 140°
2026-05-06 20:24 43.35240 13.03802 31908 ft 480 kts 140°
2026-05-06 20:25 43.32943 13.07143 32174 ft 481 kts 140°
2026-05-06 20:25 43.30643 13.10482 32500 ft 482 kts 140°
2026-05-06 20:25 43.28326 13.13840 32683 ft 485 kts 140°
2026-05-06 20:25 43.26002 13.17205 32968 ft 486 kts 140°
2026-05-06 20:26 43.23677 13.20570 33227 ft 488 kts 140°
2026-05-06 20:26 43.21338 13.23950 33467 ft 489 kts 140°
2026-05-06 20:26 43.18989 13.27341 33712 ft 491 kts 140°
2026-05-06 20:26 43.16635 13.30736 33985 ft 492 kts 140°
2026-05-06 20:27 43.14280 13.34131 34281 ft 491 kts 140°
2026-05-06 20:27 43.11926 13.37521 34536 ft 491 kts 140°
2026-05-06 20:27 43.09568 13.40909 34787 ft 492 kts 140°
2026-05-06 20:27 43.07207 13.44298 35032 ft 492 kts 140°
2026-05-06 20:28 43.04841 13.47689 35295 ft 493 kts 140°
2026-05-06 20:28 43.02476 13.51073 35507 ft 493 kts 140°
2026-05-06 20:28 43.00108 13.54459 35823 ft 492 kts 140°
2026-05-06 20:28 42.97744 13.57836 36095 ft 492 kts 140°
2026-05-06 20:29 42.95376 13.61215 36330 ft 492 kts 140°
2026-05-06 20:29 42.93008 13.64588 36589 ft 493 kts 140°
2026-05-06 20:29 42.90638 13.67962 36856 ft 492 kts 139°
2026-05-06 20:29 42.88266 13.71334 37113 ft 493 kts 139°
2026-05-06 20:30 42.85892 13.74703 37383 ft 493 kts 139°
2026-05-06 20:30 42.81134 13.81441 37856 ft 493 kts 139°
2026-05-06 20:30 42.78756 13.84804 38087 ft 493 kts 139°
2026-05-06 20:31 42.76380 13.88163 38352 ft 492 kts 139°
2026-05-06 20:31 42.74003 13.91517 38608 ft 492 kts 139°
2026-05-06 20:31 42.71626 13.94868 38798 ft 492 kts 139°
2026-05-06 20:31 42.69249 13.98214 38961 ft 492 kts 139°
2026-05-06 20:32 42.66874 14.01554 39159 ft 491 kts 139°
2026-05-06 20:32 42.64494 14.04896 39294 ft 492 kts 139°
2026-05-06 20:32 42.62114 14.08233 39436 ft 493 kts 139°
2026-05-06 20:32 42.59724 14.11582 39581 ft 493 kts 139°
2026-05-06 20:33 42.57339 14.14921 39749 ft 493 kts 139°
2026-05-06 20:33 42.54980 14.18219 39886 ft 494 kts 139°
2026-05-06 20:33 42.52551 14.21610 39981 ft 494 kts 139°
2026-05-06 20:34 42.47779 14.28261 40197 ft 496 kts 139°
2026-05-06 20:34 42.45373 14.31610 40339 ft 496 kts 139°
2026-05-06 20:34 42.42975 14.34972 40474 ft 497 kts 137°
2026-05-06 20:34 42.40689 14.38493 40596 ft 499 kts 134°
2026-05-06 20:35 42.38486 14.42133 40728 ft 500 kts 133°
2026-05-06 20:35 42.36310 14.45813 40834 ft 501 kts 133°
2026-05-06 20:35 42.34132 14.49487 40917 ft 501 kts 133°
2026-05-06 20:36 42.29729 14.56781 40939 ft 501 kts 134°
2026-05-06 20:36 42.25280 14.64007 40930 ft 501 kts 134°
2026-05-06 20:37 42.20809 14.71214 40949 ft 501 kts 134°
2026-05-06 20:37 42.16335 14.78408 40951 ft 501 kts 134°
2026-05-06 20:38 42.11857 14.85597 40956 ft 500 kts 134°
2026-05-06 20:38 42.07376 14.92774 40936 ft 500 kts 134°
2026-05-06 20:39 42.02894 14.99937 40943 ft 500 kts 134°
2026-05-06 20:39 41.98408 15.07091 40951 ft 500 kts 134°
2026-05-06 20:40 41.93914 15.14238 40950 ft 500 kts 134°
2026-05-06 20:40 41.89418 15.21372 40951 ft 500 kts 134°
2026-05-06 20:41 41.84923 15.28488 40948 ft 500 kts 134°
2026-05-06 20:41 41.80415 15.35606 40956 ft 501 kts 134°
2026-05-06 20:42 41.75898 15.42722 40961 ft 501 kts 134°
2026-05-06 20:42 41.71379 15.49824 40976 ft 501 kts 134°
2026-05-06 20:43 41.66851 15.56923 40984 ft 501 kts 134°
2026-05-06 20:43 41.62323 15.64005 40992 ft 501 kts 134°
2026-05-06 20:44 41.57786 15.71085 40994 ft 502 kts 134°
2026-05-06 20:44 41.53238 15.78167 40994 ft 502 kts 134°
2026-05-06 20:45 41.48716 15.85192 40990 ft 502 kts 134°
2026-05-06 20:45 41.44166 15.92242 40979 ft 502 kts 134°
2026-05-06 20:46 41.39612 15.99282 40980 ft 502 kts 135°
2026-05-06 20:46 41.35046 16.06322 40980 ft 503 kts 134°
2026-05-06 20:47 41.30475 16.13357 40980 ft 503 kts 134°
2026-05-06 20:47 41.25893 16.20391 40980 ft 503 kts 135°
2026-05-06 20:48 41.21311 16.27408 40982 ft 503 kts 135°
2026-05-06 20:48 41.16725 16.34416 40991 ft 503 kts 135°
2026-05-06 20:49 41.12128 16.41422 41007 ft 504 kts 134°
2026-05-06 20:49 41.07516 16.48436 40991 ft 505 kts 134°
2026-05-06 20:50 41.02898 16.55445 40991 ft 505 kts 134°
2026-05-06 20:50 40.98275 16.62444 40976 ft 505 kts 135°
2026-05-06 20:51 40.93643 16.69439 40995 ft 505 kts 134°
2026-05-06 20:51 40.89042 16.76372 40995 ft 504 kts 134°
2026-05-06 20:52 40.84413 16.83332 41008 ft 504 kts 134°
2026-05-06 20:52 40.79776 16.90262 41012 ft 504 kts 135°
2026-05-06 20:53 40.75049 16.97078 41049 ft 503 kts 136°
2026-05-06 20:53 40.70300 17.03854 41033 ft 503 kts 135°
2026-05-06 20:54 40.65560 17.10634 41039 ft 502 kts 135°
2026-05-06 20:54 40.60834 17.17402 41019 ft 502 kts 135°
2026-05-06 20:55 40.56103 17.24167 41025 ft 502 kts 135°
2026-05-06 20:55 40.51367 17.30924 41023 ft 502 kts 135°
2026-05-06 20:56 40.46629 17.37669 41028 ft 502 kts 135°
2026-05-06 20:56 40.41887 17.44402 41022 ft 503 kts 135°
2026-05-06 20:57 40.37134 17.51136 41031 ft 503 kts 135°
2026-05-06 20:57 40.32378 17.57861 41026 ft 503 kts 135°
2026-05-06 20:58 40.27614 17.64581 41034 ft 503 kts 135°
2026-05-06 20:58 40.22848 17.71289 41034 ft 503 kts 136°
2026-05-06 20:59 40.18079 17.77987 41037 ft 504 kts 136°
2026-05-06 20:59 40.13281 17.84708 41053 ft 506 kts 136°
2026-05-06 21:00 40.08504 17.91387 41059 ft 507 kts 136°
2026-05-06 21:00 40.03692 17.98101 41044 ft 507 kts 136°
2026-05-06 21:01 39.98870 18.04814 41048 ft 507 kts 136°
2026-05-06 21:01 39.94046 18.11514 41047 ft 507 kts 136°
2026-05-06 21:02 39.89222 18.18200 41045 ft 506 kts 136°
2026-05-06 21:02 39.84385 18.24887 41053 ft 507 kts 136°
2026-05-06 21:03 39.79546 18.31564 41053 ft 507 kts 136°
2026-05-06 21:03 39.75522 18.37106 41050 ft 507 kts 136°
2026-05-06 21:04 39.70675 18.43766 41050 ft 507 kts 136°
2026-05-06 21:04 39.65819 18.50424 41062 ft 508 kts 136°
2026-05-06 21:05 39.60956 18.57077 41053 ft 508 kts 136°
2026-05-06 21:05 39.56082 18.63731 41065 ft 508 kts 136°
2026-05-06 21:06 39.51209 18.70370 41064 ft 508 kts 136°
2026-05-06 21:06 39.46330 18.77002 41073 ft 508 kts 136°
2026-05-06 21:07 39.41458 18.83610 41069 ft 506 kts 135°
2026-05-06 21:07 39.36597 18.90189 41073 ft 506 kts 136°
2026-05-06 21:08 39.31739 18.96751 41070 ft 505 kts 136°
2026-05-06 21:08 39.26877 19.03282 41080 ft 504 kts 136°
2026-05-06 21:09 39.21946 19.09703 41083 ft 504 kts 137°
2026-05-06 21:09 39.16997 19.16094 41082 ft 503 kts 137°
2026-05-06 21:10 39.12059 19.22483 41083 ft 503 kts 137°
2026-05-06 21:10 39.07125 19.28873 41088 ft 503 kts 137°
2026-05-06 21:11 39.02192 19.35254 41105 ft 503 kts 137°
2026-05-06 21:11 38.97253 19.41628 41088 ft 503 kts 137°
2026-05-06 21:12 38.92310 19.47992 41083 ft 503 kts 137°
2026-05-06 21:12 38.87356 19.54357 41107 ft 504 kts 137°
2026-05-06 21:13 38.82396 19.60717 41087 ft 504 kts 137°
2026-05-06 21:13 38.77429 19.67073 41104 ft 504 kts 137°
2026-05-06 21:14 38.72498 19.73370 41108 ft 504 kts 137°
2026-05-06 21:14 38.67538 19.79691 41106 ft 503 kts 137°
2026-05-06 21:15 38.62561 19.86018 41089 ft 504 kts 137°
2026-05-06 21:15 38.57582 19.92336 41107 ft 505 kts 137°
2026-05-06 21:16 38.52598 19.98648 41104 ft 505 kts 137°
2026-05-06 21:16 38.47608 20.04954 41099 ft 505 kts 137°
2026-05-06 21:17 38.42607 20.11261 41101 ft 505 kts 137°
2026-05-06 21:17 38.37603 20.17564 41101 ft 507 kts 136°
2026-05-06 21:18 38.32574 20.23874 41101 ft 508 kts 137°
2026-05-06 21:18 38.27540 20.30181 41105 ft 508 kts 137°
2026-05-06 21:19 38.22500 20.36485 41108 ft 508 kts 137°
2026-05-06 21:19 38.17458 20.42782 41104 ft 509 kts 137°
2026-05-06 21:20 38.12406 20.49078 41108 ft 509 kts 137°
2026-05-06 21:20 38.07281 20.55303 41106 ft 510 kts 139°
2026-05-06 21:21 38.02012 20.61328 41104 ft 510 kts 140°
2026-05-06 21:21 37.96769 20.67294 41108 ft 510 kts 139°
2026-05-06 21:22 37.91509 20.73327 41102 ft 510 kts 139°
2026-05-06 21:22 37.86249 20.79375 41105 ft 511 kts 139°
2026-05-06 21:23 37.80980 20.85428 41106 ft 512 kts 139°
2026-05-06 21:23 37.75702 20.91476 41102 ft 512 kts 139°
2026-05-06 21:24 37.70414 20.97522 41104 ft 513 kts 139°
2026-05-06 21:24 37.65125 21.03557 41092 ft 512 kts 139°
2026-05-06 21:25 37.59833 21.09584 41097 ft 513 kts 139°
2026-05-06 21:25 37.54528 21.15614 41101 ft 513 kts 139°
2026-05-06 21:26 37.49221 21.21633 41098 ft 514 kts 139°
2026-05-06 21:26 37.43907 21.27648 41097 ft 514 kts 139°
2026-05-06 21:27 37.38592 21.33653 41096 ft 514 kts 139°
2026-05-06 21:27 37.33273 21.39649 41093 ft 514 kts 140°
2026-05-06 21:28 37.27942 21.45648 41101 ft 515 kts 140°
2026-05-06 21:28 37.22605 21.51642 41099 ft 515 kts 140°
2026-05-06 21:29 37.17265 21.57626 41102 ft 515 kts 140°
2026-05-06 21:29 37.11921 21.63605 41102 ft 515 kts 140°
2026-05-06 21:30 37.06573 21.69575 41093 ft 515 kts 140°
2026-05-06 21:30 37.01213 21.75547 41102 ft 516 kts 140°
2026-05-06 21:31 36.95844 21.81517 41105 ft 516 kts 140°
2026-05-06 21:31 36.90476 21.87474 41101 ft 516 kts 140°
2026-05-06 21:32 36.85106 21.93423 41100 ft 516 kts 140°
2026-05-06 21:32 36.77043 22.02332 41092 ft 517 kts 140°
2026-05-06 21:33 36.71688 22.08234 41095 ft 518 kts 140°
2026-05-06 21:33 36.66288 22.14174 41102 ft 518 kts 140°
2026-05-06 21:34 36.60892 22.20099 41098 ft 517 kts 140°
2026-05-06 21:34 36.55496 22.26012 41100 ft 517 kts 140°
2026-05-06 21:35 36.50096 22.31917 41097 ft 517 kts 140°
2026-05-06 21:35 36.44690 22.37818 41097 ft 518 kts 140°
2026-05-06 21:36 36.39270 22.43723 41098 ft 518 kts 140°
2026-05-06 21:36 36.33851 22.49616 41097 ft 517 kts 140°
2026-05-06 21:37 36.28437 22.55492 41097 ft 517 kts 140°
2026-05-06 21:37 36.23026 22.61353 41106 ft 517 kts 140°
2026-05-06 21:38 36.17611 22.67207 41109 ft 517 kts 140°
2026-05-06 21:38 36.12192 22.73055 41104 ft 517 kts 140°
2026-05-06 21:39 36.06769 22.78895 41115 ft 517 kts 140°
2026-05-06 21:39 36.01355 22.84715 41106 ft 515 kts 140°
2026-05-06 21:40 35.95943 22.90522 41103 ft 515 kts 140°
2026-05-06 21:40 35.90569 22.96277 41109 ft 515 kts 140°
2026-05-06 21:41 35.85145 23.02075 41105 ft 516 kts 140°
2026-05-06 21:41 35.79721 23.07871 41122 ft 516 kts 140°
2026-05-06 21:42 35.74297 23.13655 41107 ft 516 kts 140°
2026-05-06 21:42 35.68869 23.19431 41112 ft 516 kts 141°
2026-05-06 21:43 35.63442 23.25196 41118 ft 515 kts 141°
2026-05-06 21:43 35.58011 23.30955 41103 ft 516 kts 141°
2026-05-06 21:44 35.52571 23.36713 41108 ft 516 kts 141°
2026-05-06 21:44 35.47128 23.42465 41122 ft 516 kts 141°
2026-05-06 21:45 35.41686 23.48204 41113 ft 515 kts 141°
2026-05-06 21:45 35.36251 23.53925 41112 ft 515 kts 141°
2026-05-06 21:46 35.30812 23.59640 41120 ft 515 kts 141°
2026-05-06 21:46 35.25365 23.65350 41101 ft 515 kts 141°
2026-05-06 21:47 35.19427 23.70178 41118 ft 512 kts 153°
2026-05-06 21:47 35.13155 23.74279 41118 ft 511 kts 155°
2026-05-06 21:48 35.06833 23.78252 41122 ft 510 kts 155°
2026-05-06 21:48 35.00519 23.82218 41119 ft 511 kts 155°
2026-05-06 21:49 34.94204 23.86201 41122 ft 511 kts 155°
2026-05-06 21:49 34.87882 23.90194 41122 ft 512 kts 155°
2026-05-06 21:50 34.81607 23.94153 41119 ft 512 kts 155°
2026-05-06 21:50 34.75285 23.98133 41116 ft 512 kts 155°
2026-05-06 21:51 34.69981 24.01465 41121 ft 512 kts 155°
2026-05-06 21:51 34.63651 24.05437 41121 ft 512 kts 155°
2026-05-06 21:52 34.57320 24.09402 41118 ft 512 kts 155°
2026-05-06 21:52 34.50997 24.13356 41118 ft 511 kts 155°
2026-05-06 21:53 34.44713 24.17278 41122 ft 512 kts 155°
2026-05-06 21:53 34.38382 24.21222 41121 ft 512 kts 155°
2026-05-06 21:54 34.32044 24.25165 41121 ft 512 kts 155°
2026-05-06 21:54 34.25708 24.29099 41124 ft 512 kts 155°
2026-05-06 21:55 34.19365 24.33031 41125 ft 513 kts 155°
2026-05-06 21:55 34.13011 24.36963 41121 ft 514 kts 155°
2026-05-06 21:56 34.06648 24.40894 41125 ft 513 kts 155°
2026-05-06 21:56 34.00401 24.45034 41130 ft 515 kts 147°
2026-05-06 21:57 33.94832 24.50476 41116 ft 516 kts 140°
2026-05-06 21:57 33.89464 24.56236 41124 ft 518 kts 139°
2026-05-06 21:58 33.84117 24.62045 41124 ft 518 kts 139°
2026-05-06 21:58 33.78752 24.67831 41124 ft 518 kts 140°
2026-05-06 21:59 33.73374 24.73594 41127 ft 518 kts 140°
2026-05-06 21:59 33.67989 24.79344 41124 ft 518 kts 140°
2026-05-06 22:00 33.62601 24.85089 41118 ft 518 kts 140°
2026-05-06 22:00 33.57206 24.90832 41127 ft 519 kts 140°
2026-05-06 22:01 33.51803 24.96575 41124 ft 519 kts 140°
2026-05-06 22:01 33.46400 25.02308 41126 ft 519 kts 140°
2026-05-06 22:02 33.41005 25.08022 41127 ft 517 kts 140°
2026-05-06 22:02 33.35614 25.13722 41127 ft 517 kts 140°
2026-05-06 22:03 33.30258 25.19376 41127 ft 517 kts 140°
2026-05-06 22:03 33.24859 25.25065 41127 ft 517 kts 140°
2026-05-06 22:04 33.19462 25.30742 41127 ft 517 kts 140°
2026-05-06 22:04 33.14064 25.36410 41127 ft 516 kts 140°
2026-05-06 22:05 33.08673 25.42062 41127 ft 515 kts 140°
2026-05-06 22:05 33.03285 25.47700 41127 ft 515 kts 140°
2026-05-06 22:06 32.97890 25.53336 41126 ft 516 kts 140°
2026-05-06 22:06 32.92491 25.58967 41127 ft 516 kts 140°
2026-05-06 22:07 32.87082 25.64600 41127 ft 516 kts 140°
2026-05-06 22:07 32.81679 25.70216 41127 ft 516 kts 140°
2026-05-06 22:08 32.76281 25.75819 41127 ft 515 kts 140°
2026-05-06 22:08 32.70878 25.81416 41127 ft 515 kts 140°
2026-05-06 22:09 32.65473 25.87006 41127 ft 515 kts 140°
2026-05-06 22:09 32.60061 25.92594 41127 ft 516 kts 140°
2026-05-06 22:10 32.54649 25.98173 41126 ft 515 kts 140°
2026-05-06 22:10 32.49243 26.03737 41127 ft 515 kts 141°
2026-05-06 22:11 32.43828 26.09301 41124 ft 515 kts 141°
2026-05-06 22:11 32.38416 26.14851 41114 ft 515 kts 141°
2026-05-06 22:12 32.32998 26.20400 41128 ft 515 kts 141°
2026-05-06 22:12 32.27610 26.25908 41123 ft 515 kts 141°
2026-05-06 22:13 32.22189 26.31442 41120 ft 515 kts 141°
2026-05-06 22:13 32.16766 26.36968 41131 ft 515 kts 141°
2026-05-06 22:14 32.11341 26.42487 41117 ft 515 kts 141°
2026-05-06 22:14 32.05912 26.48001 41119 ft 515 kts 141°
2026-05-06 22:15 32.00479 26.53511 41127 ft 515 kts 141°
2026-05-06 22:15 31.95045 26.59012 41128 ft 515 kts 141°
2026-05-06 22:16 31.89610 26.64506 41128 ft 515 kts 141°
2026-05-06 22:16 31.84177 26.69988 41130 ft 515 kts 141°
2026-05-06 22:17 31.78736 26.75469 41128 ft 515 kts 141°
2026-05-06 22:17 31.73297 26.80941 41122 ft 515 kts 141°
2026-05-06 22:18 31.67855 26.86407 41135 ft 515 kts 141°
2026-05-06 22:18 31.62410 26.91866 41134 ft 514 kts 141°
2026-05-06 22:19 31.56973 26.97309 41138 ft 514 kts 141°
2026-05-06 22:19 31.51527 27.02752 41137 ft 514 kts 141°
2026-05-06 22:20 31.46084 27.08184 41141 ft 514 kts 141°
2026-05-06 22:20 31.40639 27.13609 41149 ft 514 kts 142°
2026-05-06 22:21 31.35189 27.19030 41154 ft 514 kts 142°
2026-05-06 22:21 31.30365 27.25131 41154 ft 516 kts 128°
2026-05-06 22:22 31.26229 27.32000 41153 ft 517 kts 125°
2026-05-06 22:22 31.22220 27.38980 41150 ft 517 kts 125°
2026-05-06 22:23 31.18213 27.45955 41144 ft 517 kts 125°
2026-05-06 22:23 31.14183 27.52911 41138 ft 517 kts 126°
2026-05-06 22:24 31.10122 27.59833 41135 ft 517 kts 126°
2026-05-06 22:24 31.06007 27.66699 41152 ft 516 kts 126°
2026-05-06 22:25 31.01885 27.73561 41139 ft 517 kts 126°
2026-05-06 22:25 30.97768 27.80428 41134 ft 517 kts 126°
2026-05-06 22:26 30.93650 27.87294 41135 ft 517 kts 126°
2026-05-06 22:26 30.89528 27.94159 41137 ft 517 kts 126°
2026-05-06 22:27 30.85404 28.01013 41136 ft 517 kts 127°
2026-05-06 22:27 30.81279 28.07857 41147 ft 517 kts 126°
2026-05-06 22:28 30.77142 28.14709 41141 ft 518 kts 126°
2026-05-06 22:28 30.73001 28.21555 41132 ft 518 kts 127°
2026-05-06 22:29 30.68856 28.28396 41121 ft 518 kts 127°
2026-05-06 22:29 30.64705 28.35235 41121 ft 518 kts 127°
2026-05-06 22:30 30.60551 28.42067 41132 ft 518 kts 127°
2026-05-06 22:30 30.56392 28.48896 41129 ft 518 kts 127°
2026-05-06 22:31 30.52230 28.55719 41128 ft 518 kts 127°
2026-05-06 22:31 30.48066 28.62532 41126 ft 518 kts 127°
2026-05-06 22:32 30.43900 28.69338 41122 ft 518 kts 127°
2026-05-06 22:32 30.39735 28.76130 41122 ft 517 kts 127°
2026-05-06 22:33 30.35563 28.82922 41119 ft 517 kts 127°
2026-05-06 22:33 30.31391 28.89703 41112 ft 517 kts 127°
2026-05-06 22:34 30.27216 28.96476 41112 ft 517 kts 128°
2026-05-06 22:34 30.23044 29.03236 41090 ft 516 kts 128°
2026-05-06 22:35 30.18897 29.09942 41107 ft 517 kts 128°
2026-05-06 22:35 30.14713 29.16724 41106 ft 517 kts 128°
2026-05-06 22:36 30.10546 29.23502 41105 ft 518 kts 127°
2026-05-06 22:36 30.06434 29.30324 41102 ft 517 kts 127°
2026-05-06 22:37 30.02333 29.37140 41102 ft 517 kts 127°
2026-05-06 22:37 29.98218 29.43949 41103 ft 517 kts 127°
2026-05-06 22:38 29.94098 29.50744 41100 ft 517 kts 127°
2026-05-06 22:38 29.89973 29.57533 41099 ft 517 kts 128°
2026-05-06 22:39 29.86545 29.63165 41102 ft 516 kts 128°
2026-05-06 22:39 29.82418 29.69935 41102 ft 516 kts 128°
2026-05-06 22:40 29.78290 29.76698 41098 ft 516 kts 128°
2026-05-06 22:40 29.74156 29.83459 41091 ft 516 kts 128°
2026-05-06 22:41 29.67949 29.93589 41101 ft 516 kts 128°
2026-05-06 22:42 29.63809 30.00332 41098 ft 516 kts 128°
2026-05-06 22:42 29.59660 30.07077 41095 ft 516 kts 128°
2026-05-06 22:43 29.55513 30.13811 41095 ft 516 kts 129°
2026-05-06 22:43 29.51363 30.20536 41092 ft 516 kts 129°
2026-05-06 22:44 29.47209 30.27257 41099 ft 516 kts 129°
2026-05-06 22:44 29.43052 30.33971 41095 ft 516 kts 129°
2026-05-06 22:45 29.38679 30.40465 41083 ft 513 kts 136°
2026-05-06 22:45 29.33823 30.46443 41082 ft 512 kts 138°
2026-05-06 22:46 29.28887 30.52317 41081 ft 512 kts 139°
2026-05-06 22:46 29.23938 30.58178 41097 ft 512 kts 139°
2026-05-06 22:47 29.19028 30.64005 41094 ft 512 kts 138°
2026-05-06 22:47 29.14087 30.69871 41093 ft 512 kts 138°
2026-05-06 22:48 29.09147 30.75731 41079 ft 512 kts 138°
2026-05-06 22:48 29.04207 30.81582 41073 ft 512 kts 139°
2026-05-06 22:49 28.99253 30.87440 41088 ft 513 kts 139°
2026-05-06 22:49 28.94292 30.93298 41089 ft 513 kts 139°
2026-05-06 22:50 28.89332 30.99147 41086 ft 512 kts 139°
2026-05-06 22:50 28.84377 31.04981 41088 ft 512 kts 139°
2026-05-06 22:51 28.79422 31.10806 41090 ft 511 kts 139°
2026-05-06 22:51 28.74466 31.16623 41088 ft 511 kts 139°
2026-05-06 22:52 28.69508 31.22436 41087 ft 511 kts 139°
2026-05-06 22:52 28.64674 31.28404 41088 ft 513 kts 137°
2026-05-06 22:53 28.59932 31.34472 41082 ft 513 kts 137°
2026-05-06 22:53 28.55180 31.40514 41084 ft 513 kts 137°
2026-05-06 22:54 28.50399 31.46533 41084 ft 512 kts 137°
2026-05-06 22:54 28.45616 31.52528 41069 ft 512 kts 138°
2026-05-06 22:55 28.40826 31.58522 41079 ft 512 kts 138°
2026-05-06 22:55 28.36041 31.64502 41077 ft 511 kts 138°
2026-05-06 22:56 28.31286 31.70437 41053 ft 511 kts 138°
2026-05-06 22:56 28.26492 31.76412 41080 ft 512 kts 138°
2026-05-06 22:57 28.21698 31.82379 41080 ft 512 kts 138°
2026-05-06 22:57 28.16900 31.88343 41080 ft 511 kts 138°
2026-05-06 22:58 28.12106 31.94293 41082 ft 511 kts 138°
2026-05-06 22:58 28.07308 32.00240 41081 ft 511 kts 138°
2026-05-06 22:59 28.02819 32.06530 41081 ft 520 kts 126°
2026-05-06 22:59 27.99179 32.13638 41080 ft 523 kts 124°
2026-05-06 23:00 27.95710 32.20878 41078 ft 524 kts 123°
2026-05-06 23:00 27.92255 32.28128 41080 ft 523 kts 124°
2026-05-06 23:01 27.88780 32.35355 41064 ft 523 kts 124°
2026-05-06 23:01 27.85290 32.42566 41065 ft 523 kts 124°
2026-05-06 23:02 27.81797 32.49763 41065 ft 523 kts 124°
2026-05-06 23:02 27.78294 32.56969 41059 ft 523 kts 124°
2026-05-06 23:03 27.74794 32.64162 41058 ft 523 kts 125°
2026-05-06 23:03 27.71290 32.71351 41052 ft 522 kts 125°
2026-05-06 23:04 27.67784 32.78529 41041 ft 522 kts 125°
2026-05-06 23:04 27.64298 32.85656 41039 ft 522 kts 125°
2026-05-06 23:05 27.60783 32.92830 41034 ft 523 kts 125°
2026-05-06 23:05 27.57264 32.99996 41026 ft 523 kts 125°
2026-05-06 23:06 27.53741 33.07165 41021 ft 523 kts 125°
2026-05-06 23:06 27.50215 33.14325 41022 ft 523 kts 125°
2026-05-06 23:07 27.46684 33.21483 41018 ft 523 kts 126°
2026-05-06 23:07 27.43151 33.28633 41009 ft 523 kts 126°
2026-05-06 23:08 27.39612 33.35782 41013 ft 523 kts 126°
2026-05-06 23:08 27.36074 33.42928 41003 ft 523 kts 126°
2026-05-06 23:09 27.32525 33.50071 40991 ft 524 kts 126°
2026-05-06 23:09 27.28967 33.57216 40993 ft 524 kts 126°
2026-05-06 23:10 27.25408 33.64355 40994 ft 524 kts 126°
2026-05-06 23:10 27.21844 33.71495 40983 ft 523 kts 126°
2026-05-06 23:11 27.18317 33.78644 40995 ft 526 kts 122°
2026-05-06 23:11 27.15406 33.86230 40993 ft 530 kts 118°
2026-05-06 23:12 27.12662 33.93922 40965 ft 531 kts 117°
2026-05-06 23:12 27.09940 34.01636 40968 ft 532 kts 118°
2026-05-06 23:13 27.07201 34.09350 40966 ft 532 kts 118°
2026-05-06 23:13 27.04447 34.17061 40957 ft 532 kts 118°
2026-05-06 23:14 27.01687 34.24767 40946 ft 533 kts 118°
2026-05-06 23:14 26.98916 34.32481 40947 ft 534 kts 118°
2026-05-06 23:15 26.96138 34.40199 40950 ft 534 kts 118°
2026-05-06 23:15 26.93359 34.47907 40921 ft 534 kts 118°
2026-05-06 23:16 26.90571 34.55626 40936 ft 534 kts 118°
2026-05-06 23:16 26.87784 34.63327 40933 ft 534 kts 118°
2026-05-06 23:17 26.84990 34.71030 40931 ft 534 kts 118°
2026-05-06 23:17 26.82191 34.78732 40924 ft 534 kts 118°
2026-05-06 23:18 26.79392 34.86421 40921 ft 533 kts 118°
2026-05-06 23:18 26.76605 34.94059 40921 ft 533 kts 118°
2026-05-06 23:19 26.73805 35.01737 40911 ft 533 kts 118°
2026-05-06 23:19 26.70993 35.09415 40917 ft 533 kts 119°
2026-05-06 23:20 26.68175 35.17096 40912 ft 533 kts 119°
2026-05-06 23:20 26.65358 35.24763 40897 ft 533 kts 119°
2026-05-06 23:21 26.62536 35.32430 40907 ft 533 kts 119°
2026-05-06 23:21 26.59710 35.40093 40905 ft 533 kts 119°
2026-05-06 23:22 26.56879 35.47755 40899 ft 533 kts 119°
2026-05-06 23:22 26.54015 35.55396 40901 ft 533 kts 120°
2026-05-06 23:23 26.51093 35.62998 40893 ft 533 kts 120°
2026-05-06 23:23 26.48168 35.70601 40897 ft 533 kts 120°
2026-05-06 23:24 26.45250 35.78202 40862 ft 533 kts 120°
2026-05-06 23:24 26.42348 35.85759 40902 ft 533 kts 120°
2026-05-06 23:25 26.39424 35.93364 40903 ft 533 kts 120°
2026-05-06 23:25 26.36499 36.00957 40904 ft 533 kts 120°
2026-05-06 23:26 26.33567 36.08552 40902 ft 533 kts 120°
2026-05-06 23:26 26.30632 36.16138 40898 ft 533 kts 120°
2026-05-06 23:27 26.28188 36.22446 40883 ft 533 kts 120°
2026-05-06 23:27 26.25247 36.30023 40887 ft 533 kts 120°
2026-05-06 23:28 26.22301 36.37601 40881 ft 533 kts 120°
2026-05-06 23:28 26.19352 36.45171 40884 ft 533 kts 121°
2026-05-06 23:29 26.16098 36.52526 40883 ft 527 kts 126°
2026-05-06 23:29 26.12604 36.59700 40895 ft 527 kts 126°
2026-05-06 23:30 26.09068 36.66844 40898 ft 527 kts 126°
2026-05-06 23:30 26.05527 36.73991 40897 ft 527 kts 126°
2026-05-06 23:31 26.01992 36.81132 40898 ft 527 kts 126°
2026-05-06 23:31 25.98459 36.88267 40901 ft 527 kts 126°
2026-05-06 23:32 25.94924 36.95394 40898 ft 527 kts 126°
2026-05-06 23:32 25.91387 37.02514 40897 ft 526 kts 126°
2026-05-06 23:33 25.87855 37.09613 40893 ft 525 kts 126°
2026-05-06 23:33 25.84319 37.16706 40896 ft 525 kts 126°
2026-05-06 23:34 25.80782 37.23791 40879 ft 525 kts 127°
2026-05-06 23:34 25.77256 37.30871 40898 ft 524 kts 126°
2026-05-06 23:35 25.73733 37.37953 40883 ft 524 kts 126°
2026-05-06 23:35 25.70214 37.45014 40917 ft 523 kts 126°
2026-05-06 23:36 25.66687 37.52076 40922 ft 523 kts 127°
2026-05-06 23:36 25.63160 37.59126 40919 ft 523 kts 127°
2026-05-06 23:37 25.59626 37.66174 40915 ft 523 kts 127°
2026-05-06 23:37 25.56093 37.73216 40894 ft 523 kts 127°
2026-05-06 23:38 25.52558 37.80256 40904 ft 523 kts 127°
2026-05-06 23:38 25.49019 37.87288 40897 ft 523 kts 127°
2026-05-06 23:39 25.45479 37.94312 40890 ft 523 kts 127°
2026-05-06 23:39 25.41931 38.01336 40877 ft 523 kts 127°
2026-05-06 23:40 25.38382 38.08356 40882 ft 523 kts 127°
2026-05-06 23:40 25.34830 38.15373 40882 ft 523 kts 127°
2026-05-06 23:41 25.31277 38.22379 40879 ft 523 kts 127°
2026-05-06 23:41 25.27721 38.29381 40890 ft 522 kts 127°
2026-05-06 23:42 25.24161 38.36378 40890 ft 522 kts 127°
2026-05-06 23:42 25.20600 38.43369 40895 ft 522 kts 127°
2026-05-06 23:43 25.17035 38.50356 40905 ft 522 kts 127°
2026-05-06 23:43 25.13490 38.57290 40902 ft 522 kts 127°
2026-05-06 23:44 25.09916 38.64261 40885 ft 522 kts 128°
2026-05-06 23:44 25.06336 38.71233 40908 ft 522 kts 128°
2026-05-06 23:45 25.02754 38.78195 40904 ft 522 kts 128°
2026-05-06 23:45 24.99167 38.85160 40917 ft 522 kts 128°
2026-05-06 23:46 24.95887 38.92343 40914 ft 534 kts 117°
2026-05-06 23:46 24.93458 39.00110 40921 ft 538 kts 115°
2026-05-06 23:47 24.91201 39.07968 40925 ft 539 kts 115°
2026-05-06 23:47 24.88954 39.15845 40922 ft 539 kts 115°
2026-05-06 23:48 24.86681 39.23707 40933 ft 539 kts 115°
2026-05-06 23:48 24.84389 39.31577 40936 ft 540 kts 115°
2026-05-06 23:49 24.82088 39.39444 40936 ft 540 kts 115°
2026-05-06 23:49 24.79784 39.47314 40940 ft 539 kts 115°
2026-05-06 23:50 24.77480 39.55166 40954 ft 539 kts 115°
2026-05-06 23:50 24.74033 39.66883 40954 ft 539 kts 115°
2026-05-06 23:51 24.71719 39.74725 40963 ft 539 kts 115°
2026-05-06 23:51 24.69402 39.82566 40950 ft 539 kts 115°
2026-05-06 23:52 24.67078 39.90416 40957 ft 540 kts 115°
2026-05-06 23:52 24.64750 39.98257 40957 ft 540 kts 115°
2026-05-06 23:53 24.62416 40.06102 40955 ft 540 kts 115°
2026-05-06 23:53 24.60070 40.13965 40955 ft 542 kts 115°
2026-05-06 23:54 24.57720 40.21834 40958 ft 542 kts 115°
2026-05-06 23:54 24.55364 40.29707 40952 ft 542 kts 115°
2026-05-06 23:55 24.53009 40.37559 40957 ft 542 kts 115°
2026-05-06 23:55 24.50648 40.45412 40957 ft 542 kts 116°
2026-05-06 23:56 24.48282 40.53263 40951 ft 541 kts 115°
2026-05-06 23:56 24.46075 40.61176 40957 ft 548 kts 108°
2026-05-06 23:57 24.44955 40.69506 40962 ft 553 kts 103°
2026-05-06 23:57 24.44096 40.77902 40968 ft 554 kts 102°
2026-05-06 23:58 24.43269 40.86319 40962 ft 554 kts 102°
2026-05-06 23:58 24.42420 40.94722 40949 ft 554 kts 102°
2026-05-06 23:59 24.41552 41.03110 40955 ft 553 kts 102°
2026-05-06 23:59 24.40679 41.11489 40960 ft 553 kts 102°
2026-05-07 00:00 24.39799 41.19867 40966 ft 553 kts 102°
2026-05-07 00:00 24.39064 41.26825 40970 ft 553 kts 102°
2026-05-07 00:01 24.38025 41.36612 40965 ft 552 kts 102°
2026-05-07 00:01 24.37135 41.44975 40965 ft 552 kts 102°
2026-05-07 00:02 24.36239 41.53335 40966 ft 552 kts 102°
2026-05-07 00:02 24.35339 41.61698 40962 ft 551 kts 102°
2026-05-07 00:03 24.34436 41.70045 40961 ft 551 kts 102°
2026-05-07 00:03 24.33529 41.78384 40939 ft 551 kts 102°
2026-05-07 00:04 24.32001 41.86521 40961 ft 541 kts 111°
2026-05-07 00:04 24.29994 41.94406 40960 ft 540 kts 113°
2026-05-07 00:05 24.27878 42.02359 40955 ft 540 kts 113°
2026-05-07 00:05 24.25793 42.10188 40959 ft 538 kts 113°
2026-05-07 00:06 24.23706 42.18060 40957 ft 538 kts 113°
2026-05-07 00:06 24.21619 42.25933 40959 ft 538 kts 112°
2026-05-07 00:07 24.19533 42.33795 40960 ft 537 kts 113°
2026-05-07 00:07 24.17444 42.41647 40945 ft 537 kts 112°
2026-05-07 00:08 24.15350 42.49498 40955 ft 537 kts 112°
2026-05-07 00:08 24.13254 42.57338 40960 ft 537 kts 112°
2026-05-07 00:09 24.11153 42.65179 40959 ft 537 kts 112°
2026-05-07 00:09 24.09050 42.73012 40964 ft 537 kts 112°
2026-05-07 00:10 24.06940 42.80851 40963 ft 537 kts 112°
2026-05-07 00:10 24.04830 42.88676 40965 ft 537 kts 112°
2026-05-07 00:11 24.02717 42.96509 40966 ft 537 kts 112°
2026-05-07 00:11 24.00593 43.04335 40972 ft 537 kts 112°
2026-05-07 00:12 23.98826 43.10838 40964 ft 537 kts 112°
2026-05-07 00:12 23.96694 43.18670 40972 ft 537 kts 112°
2026-05-07 00:13 23.94561 43.26493 40975 ft 537 kts 112°
2026-05-07 00:13 23.92422 43.34320 40975 ft 537 kts 112°
2026-05-07 00:14 23.90281 43.42142 40983 ft 537 kts 112°
2026-05-07 00:14 23.88136 43.49957 40978 ft 536 kts 112°
2026-05-07 00:15 23.85990 43.57758 40974 ft 536 kts 112°
2026-05-07 00:15 23.83840 43.65556 40964 ft 536 kts 112°
2026-05-07 00:16 23.81690 43.73339 40966 ft 535 kts 112°
2026-05-07 00:16 23.79538 43.81111 40960 ft 535 kts 112°
2026-05-07 00:17 23.77583 43.88954 40951 ft 540 kts 104°
2026-05-07 00:17 23.76732 43.97125 40954 ft 543 kts 99°
2026-05-07 00:18 23.76121 44.05342 40935 ft 543 kts 98°
2026-05-07 00:18 23.75541 44.13569 40933 ft 543 kts 98°
2026-05-07 00:19 23.74940 44.21792 40945 ft 544 kts 98°
2026-05-07 00:19 23.74323 44.29965 40944 ft 544 kts 98°
2026-05-07 00:20 23.73693 44.38193 40946 ft 544 kts 98°
2026-05-07 00:20 23.73061 44.46408 40949 ft 542 kts 99°
2026-05-07 00:21 23.72428 44.54589 40955 ft 541 kts 99°
2026-05-07 00:21 23.71792 44.62758 40942 ft 540 kts 99°
2026-05-07 00:22 23.71154 44.70898 40956 ft 537 kts 99°
2026-05-07 00:22 23.70514 44.78999 40957 ft 536 kts 99°
2026-05-07 00:23 23.69868 44.87107 40954 ft 536 kts 99°
2026-05-07 00:23 23.69224 44.95211 40978 ft 536 kts 99°
2026-05-07 00:24 23.68567 45.03326 40960 ft 537 kts 99°
2026-05-07 00:24 23.67909 45.11417 40962 ft 534 kts 99°
2026-05-07 00:25 23.67251 45.19468 40962 ft 533 kts 99°
2026-05-07 00:25 23.66593 45.27513 40967 ft 533 kts 99°
2026-05-07 00:26 23.65930 45.35506 40959 ft 532 kts 99°
2026-05-07 00:26 23.65259 45.43545 40954 ft 533 kts 99°
2026-05-07 00:27 23.64584 45.51596 40954 ft 533 kts 99°
2026-05-07 00:27 23.63906 45.59639 40943 ft 532 kts 99°
2026-05-07 00:28 23.63229 45.67659 40944 ft 530 kts 99°
2026-05-07 00:28 23.62545 45.75660 40936 ft 530 kts 99°
2026-05-07 00:29 23.61856 45.83657 40930 ft 529 kts 99°
2026-05-07 00:30 23.60470 45.99631 40921 ft 529 kts 99°
2026-05-07 00:30 23.59772 46.07615 40918 ft 529 kts 99°
2026-05-07 00:31 23.59070 46.15589 40924 ft 529 kts 99°
2026-05-07 00:31 23.58365 46.23566 40919 ft 528 kts 99°
2026-05-07 00:32 23.57654 46.31529 40925 ft 528 kts 99°
2026-05-07 00:32 23.56940 46.39500 40935 ft 528 kts 99°
2026-05-07 00:33 23.56222 46.47463 40938 ft 528 kts 99°
2026-05-07 00:33 23.55509 46.55370 40936 ft 528 kts 99°
2026-05-07 00:34 23.54785 46.63322 40927 ft 527 kts 99°
2026-05-07 00:34 23.54055 46.71270 40932 ft 527 kts 99°
2026-05-07 00:35 23.53322 46.79206 40933 ft 526 kts 99°
2026-05-07 00:35 23.52585 46.87145 40919 ft 526 kts 99°
2026-05-07 00:36 23.51845 46.95078 40922 ft 526 kts 99°
2026-05-07 00:36 23.51101 47.03016 40909 ft 527 kts 99°
2026-05-07 00:37 23.50351 47.10973 40904 ft 528 kts 100°
2026-05-07 00:37 23.49599 47.18917 40905 ft 526 kts 99°
2026-05-07 00:38 23.48844 47.26844 40894 ft 526 kts 99°
2026-05-07 00:38 23.48084 47.34771 40898 ft 526 kts 99°
2026-05-07 00:39 23.47321 47.42688 40888 ft 526 kts 99°
2026-05-07 00:39 23.46554 47.50608 40888 ft 526 kts 99°
2026-05-07 00:40 23.45784 47.58526 40890 ft 526 kts 99°
2026-05-07 00:40 23.45010 47.66436 40882 ft 526 kts 99°
2026-05-07 00:41 23.44232 47.74348 40882 ft 524 kts 99°
2026-05-07 00:41 23.43454 47.82223 40879 ft 523 kts 99°
2026-05-07 00:42 23.42671 47.90099 40868 ft 523 kts 99°
2026-05-07 00:42 23.41885 47.97970 40868 ft 523 kts 99°
2026-05-07 00:43 23.41095 48.05841 40864 ft 523 kts 99°
2026-05-07 00:43 23.40299 48.13723 40863 ft 523 kts 99°
2026-05-07 00:44 23.39501 48.21599 40858 ft 523 kts 99°
2026-05-07 00:44 23.38704 48.29415 40853 ft 522 kts 99°
2026-05-07 00:45 23.37941 48.37274 40854 ft 523 kts 97°
2026-05-07 00:45 23.37613 48.45188 40853 ft 524 kts 94°
2026-05-07 00:46 23.37404 48.53124 40853 ft 525 kts 95°
2026-05-07 00:46 23.37135 48.61059 40850 ft 525 kts 95°
2026-05-07 00:47 23.36815 48.68990 40849 ft 525 kts 95°
2026-05-07 00:47 23.36478 48.76917 40846 ft 525 kts 95°
2026-05-07 00:48 23.36138 48.84845 40847 ft 524 kts 95°
2026-05-07 00:48 23.35796 48.92773 40837 ft 524 kts 95°
2026-05-07 00:49 23.35452 49.00679 40842 ft 523 kts 95°
2026-05-07 00:49 23.34865 49.08546 40835 ft 520 kts 101°
2026-05-07 00:50 23.33819 49.16332 40838 ft 519 kts 102°
2026-05-07 00:50 23.32694 49.24096 40835 ft 519 kts 102°
2026-05-07 00:51 23.31562 49.31854 40831 ft 519 kts 102°
2026-05-07 00:51 23.30434 49.39618 40833 ft 520 kts 102°
2026-05-07 00:52 23.29306 49.47385 40833 ft 520 kts 102°
2026-05-07 00:52 23.28180 49.55129 40827 ft 518 kts 102°
2026-05-07 00:53 23.27050 49.62862 40833 ft 518 kts 102°
2026-05-07 00:53 23.25917 49.70591 40828 ft 518 kts 102°
2026-05-07 00:54 23.24778 49.78328 40830 ft 518 kts 102°
2026-05-07 00:54 23.23636 49.86060 40830 ft 518 kts 102°
2026-05-07 00:55 23.22490 49.93790 40824 ft 518 kts 102°
2026-05-07 00:55 23.21341 50.01517 40826 ft 518 kts 102°
2026-05-07 00:56 23.20192 50.09224 40832 ft 516 kts 102°
2026-05-07 00:56 23.19040 50.16919 40834 ft 515 kts 102°
2026-05-07 00:57 23.17885 50.24603 40837 ft 515 kts 102°
2026-05-07 00:57 23.16734 50.32235 40834 ft 515 kts 102°
2026-05-07 00:58 23.15572 50.39920 40834 ft 515 kts 102°
2026-05-07 00:58 23.14406 50.47604 40829 ft 516 kts 102°
2026-05-07 00:59 23.12649 50.59127 40828 ft 515 kts 102°
2026-05-07 01:00 23.11476 50.66796 40826 ft 514 kts 102°
2026-05-07 01:00 23.10490 50.73217 40829 ft 515 kts 102°
2026-05-07 01:01 23.09310 50.80882 40828 ft 515 kts 102°
2026-05-07 01:01 23.08132 50.88504 40823 ft 515 kts 102°
2026-05-07 01:02 23.06936 50.96222 40823 ft 515 kts 102°
2026-05-07 01:02 23.05750 51.03848 40825 ft 515 kts 102°
2026-05-07 01:03 23.04553 51.11516 40815 ft 515 kts 102°
2026-05-07 01:03 23.03354 51.19177 40820 ft 514 kts 102°
2026-05-07 01:04 23.02153 51.26826 40822 ft 514 kts 102°
2026-05-07 01:04 23.00950 51.34463 40816 ft 514 kts 102°
2026-05-07 01:05 22.99741 51.42112 40818 ft 514 kts 102°
2026-05-07 01:05 22.98529 51.49757 40818 ft 514 kts 102°
2026-05-07 01:06 22.97312 51.57404 40809 ft 514 kts 102°
2026-05-07 01:06 22.96093 51.65046 40815 ft 514 kts 102°
2026-05-07 01:07 22.94871 51.72681 40816 ft 513 kts 102°
2026-05-07 01:07 22.93653 51.80262 40810 ft 513 kts 102°
2026-05-07 01:08 22.92425 51.87886 40808 ft 513 kts 102°
2026-05-07 01:08 22.91193 51.95510 40809 ft 513 kts 102°
2026-05-07 01:09 22.89958 52.03128 40812 ft 513 kts 102°
2026-05-07 01:09 22.88718 52.10748 40809 ft 513 kts 102°
2026-05-07 01:10 22.87475 52.18369 40809 ft 513 kts 102°
2026-05-07 01:10 22.86229 52.25987 40806 ft 513 kts 102°
2026-05-07 01:11 22.84983 52.33581 40809 ft 511 kts 102°
2026-05-07 01:11 22.83734 52.41169 40809 ft 511 kts 102°
2026-05-07 01:12 22.82592 52.48769 40810 ft 512 kts 96°
2026-05-07 01:12 22.82228 52.56487 40806 ft 513 kts 93°
2026-05-07 01:13 22.82027 52.64207 40807 ft 513 kts 93°
2026-05-07 01:13 22.81848 52.71934 40809 ft 513 kts 93°
2026-05-07 01:14 22.81655 52.79654 40807 ft 512 kts 93°
2026-05-07 01:14 22.81449 52.87373 40808 ft 512 kts 93°
2026-05-07 01:15 22.81236 52.95088 40812 ft 512 kts 93°
2026-05-07 01:15 22.81020 53.02798 40806 ft 511 kts 93°
2026-05-07 01:16 22.80801 53.10487 40810 ft 510 kts 93°
2026-05-07 01:16 22.80580 53.18163 40807 ft 510 kts 93°
2026-05-07 01:17 22.80356 53.25785 40811 ft 509 kts 93°
2026-05-07 01:17 22.80126 53.33465 40807 ft 510 kts 93°
2026-05-07 01:18 22.79891 53.41201 40806 ft 510 kts 93°
2026-05-07 01:18 22.79656 53.48838 40808 ft 510 kts 93°
2026-05-07 01:19 22.79415 53.56520 40807 ft 510 kts 93°
2026-05-07 01:19 22.79171 53.64205 40804 ft 510 kts 93°
2026-05-07 01:20 22.78924 53.71886 40808 ft 510 kts 93°
2026-05-07 01:20 22.78672 53.79568 40807 ft 511 kts 93°
2026-05-07 01:21 22.78416 53.87258 40806 ft 511 kts 93°
2026-05-07 01:21 22.78158 53.94938 40807 ft 509 kts 93°
2026-05-07 01:22 22.78690 54.02564 40806 ft 510 kts 80°
2026-05-07 01:22 22.80103 54.10103 40804 ft 511 kts 78°
2026-05-07 01:23 22.81658 54.17623 40808 ft 511 kts 78°
2026-05-07 01:23 22.83215 54.25145 40801 ft 511 kts 78°
2026-05-07 01:24 22.84749 54.32670 40811 ft 511 kts 78°
2026-05-07 01:24 22.86268 54.40198 40808 ft 511 kts 78°
2026-05-07 01:25 22.87782 54.47724 40810 ft 511 kts 78°
2026-05-07 01:25 22.89293 54.55252 40810 ft 511 kts 78°
2026-05-07 01:26 22.90802 54.62788 40808 ft 511 kts 78°
2026-05-07 01:26 22.92308 54.70325 40813 ft 511 kts 78°
2026-05-07 01:27 22.93810 54.77867 40812 ft 511 kts 78°
2026-05-07 01:27 22.95299 54.85358 40813 ft 512 kts 78°
2026-05-07 01:28 22.96797 54.92913 40814 ft 512 kts 78°
2026-05-07 01:28 22.98290 55.00466 40821 ft 512 kts 78°
2026-05-07 01:29 22.99780 55.08020 40830 ft 512 kts 79°
2026-05-07 01:29 23.01749 55.15436 40829 ft 513 kts 66°
2026-05-07 01:30 23.05618 55.21883 40839 ft 511 kts 45°
2026-05-07 01:30 23.11257 55.26475 40840 ft 507 kts 24°
2026-05-07 01:31 23.17921 55.28762 40842 ft 503 kts 12°
2026-05-07 01:31 23.24718 55.30685 40849 ft 505 kts 12°
2026-05-07 01:32 23.31518 55.32602 40852 ft 505 kts 12°
2026-05-07 01:32 23.38309 55.34574 40851 ft 505 kts 13°
2026-05-07 01:33 23.45091 55.36577 40853 ft 505 kts 12°
2026-05-07 01:33 23.51882 55.38590 40857 ft 506 kts 12°
2026-05-07 01:34 23.58683 55.40610 40857 ft 506 kts 12°
2026-05-07 01:34 23.65478 55.42620 40855 ft 506 kts 12°
2026-05-07 01:35 23.72272 55.44631 40700 ft 503 kts 12°
2026-05-07 01:35 23.75646 55.45632 39959 ft 504 kts 12°
2026-05-07 01:35 23.79042 55.46639 39159 ft 507 kts 12°
2026-05-07 01:35 23.82459 55.47653 38393 ft 509 kts 12°
2026-05-07 01:36 23.85887 55.48672 37496 ft 512 kts 12°
2026-05-07 01:36 23.89328 55.49698 36582 ft 514 kts 12°
2026-05-07 01:36 23.92748 55.50713 35708 ft 517 kts 12°
2026-05-07 01:36 23.96218 55.51744 34912 ft 518 kts 12°
2026-05-07 01:37 23.99627 55.53078 34035 ft 525 kts 22°
2026-05-07 01:37 24.02782 55.55138 33016 ft 533 kts 35°
2026-05-07 01:37 24.05720 55.57716 32034 ft 536 kts 38°
2026-05-07 01:37 24.08501 55.60369 31061 ft 539 kts 40°
2026-05-07 01:38 24.11306 55.63164 30314 ft 536 kts 40°
2026-05-07 01:38 24.14028 55.65921 29587 ft 531 kts 41°
2026-05-07 01:38 24.16724 55.68651 28881 ft 525 kts 41°
2026-05-07 01:38 24.19401 55.71351 28199 ft 519 kts 41°
2026-05-07 01:39 24.22049 55.74005 27533 ft 513 kts 41°
2026-05-07 01:39 24.24669 55.76619 26874 ft 507 kts 41°
2026-05-07 01:39 24.27266 55.79203 26220 ft 502 kts 41°
2026-05-07 01:39 24.29843 55.81766 25570 ft 496 kts 41°
2026-05-07 01:40 24.32383 55.84291 24923 ft 491 kts 41°
2026-05-07 01:40 24.34904 55.86798 24264 ft 486 kts 41°
2026-05-07 01:40 24.37388 55.89272 23629 ft 481 kts 41°
2026-05-07 01:40 24.39856 55.91727 22912 ft 476 kts 41°
2026-05-07 01:41 24.42289 55.94152 22223 ft 469 kts 41°
2026-05-07 01:41 24.44680 55.96538 21597 ft 461 kts 42°
2026-05-07 01:41 24.47004 55.98859 20982 ft 455 kts 42°
2026-05-07 01:41 24.49329 56.01181 20321 ft 448 kts 42°
2026-05-07 01:42 24.51618 56.03468 19685 ft 442 kts 42°
2026-05-07 01:42 24.53877 56.05726 19059 ft 436 kts 42°
2026-05-07 01:42 24.56106 56.07959 18432 ft 431 kts 43°
2026-05-07 01:42 24.58341 56.10114 17725 ft 425 kts 38°
2026-05-07 01:43 24.60859 56.11769 17074 ft 420 kts 24°
2026-05-07 01:43 24.63611 56.12769 16429 ft 414 kts 16°
2026-05-07 01:43 24.66400 56.13471 15809 ft 408 kts 12°
2026-05-07 01:43 24.69173 56.14009 15205 ft 401 kts 11°
2026-05-07 01:44 24.71911 56.14472 14606 ft 395 kts 10°
2026-05-07 01:44 24.74614 56.14911 13999 ft 390 kts 11°
2026-05-07 01:44 24.77262 56.15279 13779 ft 376 kts
2026-05-07 01:44 24.79807 56.15060 13662 ft 362 kts 350°
2026-05-07 01:45 24.82155 56.14204 13533 ft 348 kts 341°
2026-05-07 01:45 24.84341 56.13194 13384 ft 334 kts 339°
2026-05-07 01:45 24.86423 56.12191 13252 ft 320 kts 339°
2026-05-07 01:45 24.88417 56.11221 13116 ft 307 kts 339°
2026-05-07 01:46 24.90302 56.10298 12985 ft 295 kts 339°
2026-05-07 01:46 24.92139 56.09397 12816 ft 285 kts 339°
2026-05-07 01:46 24.93935 56.08516 12548 ft 280 kts 339°
2026-05-07 01:46 24.95706 56.07645 12264 ft 277 kts 339°
2026-05-07 01:47 24.97357 56.06611 11992 ft 275 kts 327°
2026-05-07 01:47 24.98714 56.05055 11318 ft 291 kts 304°
2026-05-07 01:47 24.99383 56.02906 10640 ft 305 kts 277°
2026-05-07 01:47 24.99484 56.00552 10094 ft 310 kts 272°
2026-05-07 01:48 24.99500 55.98179 9644 ft 309 kts 271°
2026-05-07 01:48 24.99518 55.95828 9100 ft 303 kts 272°
2026-05-07 01:48 24.99544 55.93531 8405 ft 296 kts 272°
2026-05-07 01:48 24.99565 55.92045 8088 ft 292 kts 272°
2026-05-07 01:49 24.99599 55.89816 7722 ft 289 kts 272°
2026-05-07 01:49 24.99635 55.87599 7455 ft 288 kts 272°
2026-05-07 01:49 24.99671 55.85408 7086 ft 284 kts 272°
2026-05-07 01:49 24.99759 55.83249 6741 ft 279 kts 278°
2026-05-07 01:50 25.00339 55.81243 6428 ft 275 kts 297°
2026-05-07 01:50 25.01296 55.79433 6099 ft 272 kts 301°
2026-05-07 01:50 25.02319 55.77660 5768 ft 272 kts 303°
2026-05-07 01:50 25.03456 55.76017 5463 ft 273 kts 305°
2026-05-07 01:51 25.04456 55.74274 5282 ft 262 kts 299°
2026-05-07 01:51 25.05354 55.72578 5136 ft 250 kts 299°
2026-05-07 01:51 25.06221 55.70972 5019 ft 238 kts 300°
2026-05-07 01:51 25.07035 55.69445 4972 ft 223 kts 298°
2026-05-07 01:52 25.07778 55.68014 4952 ft 208 kts 299°
2026-05-07 01:52 25.08512 55.66684 4941 ft 200 kts 301°
2026-05-07 01:52 25.09249 55.65383 4937 ft 199 kts 301°
2026-05-07 01:52 25.09975 55.64084 4881 ft 199 kts 300°
2026-05-07 01:53 25.10688 55.62795 4684 ft 194 kts 300°
2026-05-07 01:53 25.11390 55.61528 4416 ft 193 kts 300°
2026-05-07 01:53 25.12090 55.60268 4111 ft 193 kts 299°
2026-05-07 01:53 25.12792 55.59004 3851 ft 193 kts 298°
2026-05-07 01:54 25.13493 55.57739 3592 ft 193 kts 298°
2026-05-07 01:54 25.14195 55.56471 3340 ft 193 kts 297°
2026-05-07 01:54 25.14897 55.55205 3100 ft 194 kts 297°
2026-05-07 01:54 25.15601 55.53934 2857 ft 194 kts 297°
2026-05-07 01:55 25.16304 55.52665 2609 ft 194 kts 296°
2026-05-07 01:55 25.17002 55.51402 2361 ft 191 kts 297°
2026-05-07 01:55 25.17686 55.50166 2143 ft 186 kts 297°
2026-05-07 01:55 25.18351 55.48964 1901 ft 181 kts 297°
2026-05-07 01:56 25.18998 55.47794 1680 ft 176 kts 298°
2026-05-07 01:56 25.19619 55.46672 1437 ft 165 kts 297°
2026-05-07 01:56 25.20196 55.45624 1239 ft 155 kts 298°
2026-05-07 01:56 25.20742 55.44638 1039 ft 146 kts 298°
2026-05-07 01:57 25.21256 55.43709 885 ft 137 kts 299°
2026-05-07 01:57 25.21747 55.42821 727 ft 135 kts 300°
2026-05-07 01:57 25.22241 55.41933 571 ft 135 kts 301°
2026-05-07 01:57 25.22731 55.41051 394 ft 135 kts 300°
2026-05-07 01:58 25.23218 55.40166 208 ft 134 kts 300°
2026-05-07 01:58 25.23699 55.39290 53 ft 134 kts 300°
2026-05-07 01:58 25.24154 55.38472 37 ft 107 kts 301°
2026-05-07 01:58 25.24474 55.37896 36 ft 69 kts 302°
2026-05-07 01:59 25.24675 55.37535 34 ft 38 kts 301°
2026-05-07 01:59 25.24772 55.37307 35 ft 26 kts 287°
2026-05-07 01:59 25.24787 55.37126 33 ft 20 kts 271°
2026-05-07 01:59 25.24803 55.36957 30 ft 23 kts 290°
2026-05-07 02:00 25.24856 55.36820 29 ft 20 kts 284°
2026-05-07 02:00 25.24897 55.36662 28 ft 22 kts 294°
2026-05-07 02:00 25.24977 55.36516 29 ft 23 kts 301°
2026-05-07 02:00 25.25068 55.36352 28 ft 27 kts 301°
2026-05-07 02:01 25.25161 55.36186 28 ft 28 kts 302°
2026-05-07 02:01 25.25272 55.35991 28 ft 32 kts 302°
2026-05-07 02:01 25.25379 55.35801 28 ft 25 kts 302°
2026-05-07 02:01 25.25440 55.35691 28 ft 28 kts 302°
2026-05-07 02:02 25.25528 55.35535 28 ft 32 kts 302°
2026-05-07 02:02 25.25643 55.35330 28 ft 31 kts 301°
2026-05-07 02:02 25.25764 55.35113 28 ft 35 kts 299°
2026-05-07 02:02 25.25886 55.34892 28 ft 30 kts 302°
2026-05-07 02:03 25.25995 55.34696 28 ft 29 kts 301°
2026-05-07 02:03 25.26097 55.34516 28 ft 26 kts 302°
2026-05-07 02:03 25.26200 55.34332 28 ft 31 kts 302°
2026-05-07 02:03 25.26282 55.34154 28 ft 20 kts 265°
2026-05-07 02:04 25.26219 55.34084 28 ft 14 kts 212°
2026-05-07 02:04 25.26140 55.34025 28 ft 6 kts 237°
2026-05-07 02:04 25.26138 55.34005 28 ft 2 kts 289°
2026-05-07 02:04 25.26150 55.33984 28 ft 5 kts 301°
2026-05-07 02:05 25.26172 55.33945 28 ft 2 kts 302°
2026-05-07 02:05 25.26174 55.33942 28 ft 0 kts 302°